{"data":{"norad_id":57245,"epoch":"2026-09-20T07:50:29.410656Z","epoch_age_seconds":139209,"freshness":"FRESH","line1":"1 57245U 23094AD  26263.32672929 -.00000295  00000+0 -11842-5 0  9998","line2":"2 57245  43.0063   0.9843 0001785 285.3130  74.7524 15.27577141177002","mean_motion":15.27577141,"eccentricity":0.0001785,"inclination_deg":43.0063,"raan_deg":0.9843,"arg_perigee_deg":285.313,"mean_anomaly_deg":74.7524,"bstar":-1.1842e-6,"rev_number":17700,"period_min":94.266925142473,"perigee_km":481.83293368126,"apogee_km":484.28238017379,"semimajor_km":6861.1946569275,"source":"CELESTRAK","updated_at":"2026-09-21T09:00:33.589873Z"}}